FW4111 Weather Reports


Display with metric or nautical units.
time (UTC)temp
F
wind
direction
speed
MPH
gust
MPH
rain 1hr
in
rain 24hr
in
rain mn
in
humidity
%
barometer
mb
20260506171511 61 179 15.0 27.0 0.00 0.00 0.00 95 1008.6
20260506170112 60 183 13.0 22.0 0.00 0.00 0.00 95 1008.9
20260506164547 60 228 18.0 30.0 0.00 0.00 0.00 95 1009.4
20260506163054 60 224 22.0 33.0 0.00 0.00 0.00 95 1009.8
20260506161542 60 214 19.0 31.0 0.00 0.00 0.00 95 1009.9
20260506160024 60 211 19.0 28.0 0.00 0.00 0.00 95 1010.0
20260506154531 60 229 14.0 28.0 0.00 0.00 0.00 94 1009.9
20260506153027 60 214 16.0 28.0 0.00 0.00 0.00 94 1009.9
20260506151524 60 233 17.0 28.0 0.00 0.00 0.00 94 1010.0
20260506150014 60 233 20.0 33.0 0.00 0.00 0.00 95 1010.1
20260506144504 61 222 21.0 34.0 0.00 0.00 0.00 94 1010.0
20260506143001 61 236 21.0 33.0 0.00 0.00 0.00 94 1010.2
20260506141603 60 222 19.0 33.0 0.00 0.00 0.00 94 1010.0
20260506140059 61 243 16.0 24.0 0.00 0.00 0.00 94 1010.1
20260506134539 61 245 15.0 27.0 0.00 0.00 0.00 94 1010.3
20260506133042 61 215 18.0 26.0 0.00 0.00 0.00 94 1010.5
20260506131533 61 233 15.0 28.0 0.00 0.00 0.00 95 1010.6
20260506130009 60 244 16.0 28.0 0.00 0.00 0.00 95 1010.5
20260506124509 59 248 16.0 25.0 0.00 0.00 0.00 96 1010.4
20260506123009 60 192 14.0 29.0 0.00 0.00 0.00 96 1010.3
20260506121505 59 223 17.0 27.0 0.00 0.00 0.00 97 1010.4
20260506120108 59 238 12.0 22.0 0.00 0.00 0.00 96 1010.4
20260506114550 59 167 13.0 24.0 0.00 0.00 0.00 96 1010.6
20260506113046 59 217 18.0 28.0 0.00 0.00 0.00 96 1010.7
20260506111544 59 224 16.0 27.0 0.00 0.00 0.00 97 1010.7
20260506110045 59 214 17.0 28.0 0.00 0.00 0.00 97 1010.5
20260506104546 58 236 17.0 26.0 0.00 0.00 0.00 97 1010.5
20260506103020 0 0.0 0.0 0.00 0.00 0.00 1010.5
20260506101526 0 0.0 0.0 0.00 0.00 0.00 1010.5
20260506100004 0 0.0 0.0 0.00 0.00 0.00 1010.3
20260506094508 0 230 22.0 31.0 0.00 0.00 0.00 1010.3
20260506093006 58 217 17.0 26.0 0.00 0.00 0.00 98 1010.4
20260506091505 58 238 22.0 31.0 0.00 0.00 0.00 98 1010.4
20260506090107 58 233 22.0 33.0 0.00 0.00 0.00 98 1010.5
20260506084547 58 223 24.0 32.0 0.00 0.00 0.00 98 1010.6
20260506083047 58 226 23.0 32.0 0.00 0.00 0.00 98 1010.6
20260506081542 58 226 21.0 30.0 0.00 0.00 0.00 97 1010.7
20260506073018 59 221 21.0 27.0 0.00 0.00 0.00 96 1010.9
20260506071520 59 222 20.0 26.0 0.00 0.00 0.00 96 1011.0
20260506070117 59 210 20.0 27.0 0.00 0.00 0.00 95 1010.9
20260506061552 59 236 18.0 29.0 0.00 0.00 0.00 94 1010.8
20260506050118 59 219 27.0 32.0 0.00 0.00 0.00 94 1011.4
20260506044611 59 218 23.0 34.0 0.00 0.00 0.00 94 1011.4
20260506043058 59 228 21.0 33.0 0.00 0.00 0.00 93 1011.4
20260506041600 60 214 24.0 33.0 0.00 0.00 0.00 93 1011.3
20260506040057 60 230 24.0 35.0 0.00 0.00 0.00 92 1011.3
20260506034538 60 246 25.0 35.0 0.00 0.00 0.00 92 1011.4
20260506033036 60 242 25.0 34.0 0.00 0.00 0.00 92 1011.5
20260506031534 60 246 22.0 32.0 0.00 0.00 0.00 92 1011.4
20260506030010 61 247 22.0 32.0 0.00 0.00 0.00 91 1011.5
20260506024520 61 230 26.0 34.0 0.00 0.00 0.00 91 1011.5
20260506023005 61 236 22.0 33.0 0.00 0.00 0.00 90 1011.7
20260506021503 61 240 25.0 37.0 0.00 0.00 0.00 90 1011.8
20260506020105 61 227 23.0 33.0 0.00 0.00 0.00 91 1011.7
20260506014545 61 231 23.0 34.0 0.00 0.00 0.00 90 1011.8
20260506013045 62 242 23.0 34.0 0.00 0.00 0.00 90 1011.7
20260506011545 62 213 22.0 32.0 0.00 0.00 0.00 90 1011.6
20260506010019 62 211 24.0 31.0 0.00 0.00 0.00 89 1011.4
20260506004515 62 240 24.0 36.0 0.00 0.00 0.00 89 1011.2
20260506003012 63 234 27.0 34.0 0.00 0.00 0.00 89 1011.1
20260506001513 63 244 25.0 36.0 0.00 0.00 0.00 86 1011.0
20260506000116 63 232 27.0 34.0 0.00 0.00 0.00 88 1010.6
20260505234613 63 99 22.0 32.0 0.00 0.00 0.00 88 1010.5
20260505233057 63 231 20.0 34.0 0.00 0.00 0.00 87 1010.5
20260505231554 64 241 30.0 38.0 0.00 0.00 0.00 85 1010.4
20260505230052 65 238 31.0 38.0 0.00 0.00 0.00 84 1010.4
20260505224533 65 237 28.0 36.0 0.00 0.00 0.00 84 1010.1
20260505223032 65 220 30.0 38.0 0.00 0.00 0.00 84 1010.2
20260505221527 65 225 29.0 36.0 0.00 0.00 0.00 85 1010.1
20260505220008 64 196 22.0 34.0 0.00 0.00 0.00 87 1009.9
20260505214505 64 216 23.0 36.0 0.00 0.00 0.00 86 1009.6
20260505213001 64 246 20.0 31.0 0.00 0.00 0.00 86 1009.7
20260505211635 64 230 20.0 34.0 0.00 0.00 0.00 86 1009.5
20260505210059 64 199 20.0 37.0 0.00 0.00 0.00 86 1009.5
20260505204539 65 256 23.0 36.0 0.00 0.00 0.00 84 1009.3
20260505203049 64 233 17.0 31.0 0.00 0.00 0.00 85 1009.4
20260505201530 64 210 23.0 34.0 0.00 0.00 0.00 85 1009.5
20260505200010 64 143 17.0 34.0 0.00 0.00 0.00 86 1009.6
20260505194508 63 245 18.0 32.0 0.00 0.00 0.00 86 1009.7
20260505193006 63 232 18.0 28.0 0.00 0.00 0.00 86 1009.8
20260505191604 63 281 14.0 29.0 0.00 0.00 0.00 86 1009.9
20260505184548 63 242 14.0 26.0 0.00 0.00 0.00 87 1010.1
20260505183042 63 243 17.0 28.0 0.00 0.00 0.00 88 1010.5
20260505181534 62 158 16.0 28.0 0.00 0.00 0.00 87 1010.7
20260505180014 62 175 16.0 30.0 0.00 0.00 0.00 88 1010.7
20260505174513 62 219 17.0 30.0 0.00 0.00 0.00 89 1010.7
20260505173016 62 269 15.0 25.0 0.00 0.00 0.00 87 1010.6